{"data":{"norad_id":58897,"epoch":"2026-09-20T22:29:02.280480Z","epoch_age_seconds":117774,"freshness":"FRESH","line1":"1 58897U 24020X   26263.93683195  .00001146  00000+0  48693-4 0  9993","line2":"2 58897  53.1586 134.1442 0001316  46.3820 313.7291 15.31700912147984","mean_motion":15.31700912,"eccentricity":0.0001316,"inclination_deg":53.1586,"raan_deg":134.1442,"arg_perigee_deg":46.382,"mean_anomaly_deg":313.7291,"bstar":4.8693e-5,"rev_number":14798,"period_min":94.013131984085,"perigee_km":469.83596474765,"apogee_km":471.63858845725,"semimajor_km":6848.8742766025,"source":"CELESTRAK","updated_at":"2026-09-21T09:00:33.995573Z"}}